Simultaneous Nadir Overpasses (SNOs) Predictions

Prediction of SNOs between AQUA and NPP Satellite Orbit:

Table of predicted SNOs for the next 14.0 days since TLE Epoch: 12/31/2022
Index Date (AQUA) Time (AQUA) Lat,Lon (AQUA) SZA (AQUA ) Date (NPP) Time (NPP) Lat,Lon (NPP) SZA (NPP ) Distance(km) Time Diff (sec)
1 01/02/2023 07:00:18 -79.20, 150.06 64.54 01/02/2023 06:59:36 -79.20, 150.10 64.51 0.83 42
2 01/02/2023 07:49:37 79.42, -40.82 115.16 01/02/2023 07:50:14 79.42, -40.90 115.15 1.72 37
3 01/04/2023 22:26:10 79.22, 98.72 115.24 01/04/2023 22:25:48 79.21, 98.65 115.27 1.58 22
4 01/04/2023 23:15:29 -79.50, -91.70 65.17 01/04/2023 23:16:25 -79.50, -91.75 65.20 1.13 56
5 01/07/2023 13:52:01 -79.31, 47.87 65.15 01/07/2023 13:51:59 -79.30, 47.76 65.12 2.47 2
6 01/07/2023 14:39:34 81.77,-104.68 108.84 01/07/2023 14:40:47 81.27,-104.59 108.56 55.88 73
7 01/10/2023 04:28:30 -79.15,-172.24 65.24 01/10/2023 04:27:30 -79.15,-172.20 65.20 0.85 60
8 01/10/2023 05:17:49 79.37, -3.15 114.46 01/10/2023 05:18:08 79.37, -3.26 114.47 2.24 19
9 01/12/2023 19:54:18 79.22, 136.75 114.32 01/12/2023 19:53:40 79.22, 136.71 114.35 0.93 38



Historial Predications of SNOs between AQUA and NPP
